EHI
5 6 5 4 3 3 3 2 4 6 7 7 7 6 3 2 2 2 2 2 1 1 0 0 0 0 0 0 0 0 0 0 1 2 2 3 2 2 1 0 0 1 3
7 7 7 6 4 3 3 3 5 6 6 6 5 4 2 1 1 2 3 2 2 1 0 0 0 0 0 0 0 0 0 0 0 1 1 2 2 1 0 0 0 1 4
9 8 9 8 5 3 3 3 5 6 6 4 2 1 1 0 1 2 3 3 1 1 0 0 0 0 0 0 0 0 0 0 0 0 0 1 1 1 0 0 0 2 3
11 9 9 8 5 3 3 4 6 8 7 4 1 0 0 0 1 2 3 2 1 0 0 0 0 0 0 0 0 0 0 0 0 0 0 0 1 1 0 0 0 1 2
13 10 7 6 4 3 4 5 8 8 6 3 1 0 0 0 1 2 2 2 1 0 0 0 0 0 0 0 0 0 0 0 0 0 0 0 0 0 0 0 0 0 0
14 11 7 6 5 4 4 5 7 7 4 1 1 0 0 0 0 1 1 1 0 0 0 0 0 0 0 0 0 1 1 1 0 0 0 0 0 0 0 0 0 0 0
14 12 10 8 6 5 4 3 4 3 1 0 0 0 0 0 0 0 0 0 0 0 0 0 0 0 0 0 0 0 0 0 0 0 0 0 0 0 0 0 0 0 0
15 13 12 11 7 4 3 2 2 2 1 1 1 1 0 0 0 0 0 0 0 0 0 0 0 0 0 0 0 0 0 0 0 0 0 0 0 0 0 0 0 0 0
16 13 11 10 6 2 1 1 2 3 2 2 2 1 0 0 0 0 0 0 0 0 0 0 0 0 0 0 0 0 0 0 0 0 0 0 0 0 0 0 0 0 0
15 12 10 8 5 4 3 2 2 2 1 1 1 1 1 1 1 1 0 0 0 0 0 0 0 0 0 0 0 0 0 0 0 0 0 0 0 0 0 0 0 0 0
14 12 9 7 6 6 5 4 1 0 0 0 1 1 2 2 2 2 1 1 1 0 0 0 0 0 0 0 0 0 0 0 0 0 0 0 0 0 0 0 0 0 0
16 14 10 8 7 6 5 4 2 1 1 1 2 3 3 4 3 3 2 2 1 0 0 0 0 0 0 0 0 0 0 0 0 0 0 0 0 0 0 0 0 0 0
17 15 12 9 7 6 5 4 3 2 2 1 2 4 5 5 4 2 1 1 1 0 0 0 0 0 0 0 0 0 0 0 0 0 0 0 0 0 0 0 0 0 0
18 16 14 12 9 7 6 5 4 4 3 1 2 5 6 5 3 1 0 0 0 0 0 0 0 0 0 0 0 0 0 0 0 0 0 0 0 0 0 0 0 0 0
17 18 17 16 13 11 9 7 7 5 3 2 3 5 6 5 3 1 1 0 0 0 0 0 0 0 0 0 0 0 0 0 0 0 0 0 0 0 0 0 0 0 0
16 18 18 18 17 15 14 12 10 8 5 2 2 3 5 5 4 3 2 1 0 0 0 0 0 0 0 0 0 0 0 0 0 0 0 0 0 0 0 0 0 0 0
15 16 18 19 20 19 18 16 14 11 8 4 2 3 5 6 5 4 3 2 1 0 0 0 0 0 0 0 0 0 0 0 0 0 0 0 0 0 0 0 0 0 0
12 14 17 19 20 20 18 16 14 12 8 4 3 4 5 6 5 4 3 2 1 0 0 0 0 0 0 0 0 0 0 0 0 0 0 0 0 0 0 0 0 0 0
12 14 17 19 20 20 18 15 13 10 6 3 2 3 4 4 4 3 2 1 1 1 0 0 0 0 0 0 0 0 0 0 0 0 0 0 0 0 0 0 0 0 0
15 17 18 20 21 21 19 16 12 8 4 1 2 3 3 3 3 3 3 2 2 2 1 0 0 0 0 0 0 0 0 0 0 0 0 0 0 0 0 0 0 0 0
20 20 20 20 21 21 20 17 13 8 3 1 2 2 2 2 2 3 3 3 3 3 2 1 0 1 1 0 0 0 0 0 0 0 0 0 0 0 0 0 0 0 0
21 20 19 19 18 16 17 17 13 8 3 2 2 2 2 1 1 2 2 3 3 2 2 1 1 1 1 0 0 0 0 0 0 0 0 0 0 0 0 0 0 0 0
18 17 17 18 15 12 12 13 11 8 4 3 4 3 2 2 2 2 2 2 1 1 1 1 0 1 1 0 0 0 0 0 0 0 0 0 0 0 0 0 0 0 0
16 16 18 19 15 11 10 9 7 6 5 5 5 4 3 3 3 3 1 1 1 0 1 1 1 1 0 0 0 0 0 0 0 0 0 0 0 0 0 0 0 0 0
12 13 16 17 14 11 9 8 5 5 5 5 5 4 3 3 3 2 0 0 1 1 1 2 2 1 0 0 0 0 0 0 0 0 0 0 0 0 0 0 0 0 0
8 10 12 13 10 9 8 6 5 5 5 4 4 5 3 2 2 1 0 0 1 1 1 1 1 1 0 0 0 0 0 0 0 0 0 0 0 0 0 0 0 0 0
Wind_Speed
9 9 9 8 9 8 9 9 8 7 5 5 5 5 5 4 4 4 4 3 3 3 1 2 2 0 1 1 1 1 2 2 2 3 4 4 4 4 4 4 4 4 5
11 10 10 9 10 9 9 9 9 8 6 5 3 3 4 4 4 4 4 4 4 3 3 2 1 2 1 1 1 1 2 1 1 3 3 4 5 5 4 3 4 4 4
13 12 11 10 10 10 9 8 8 8 6 6 5 5 4 4 4 4 4 4 4 3 3 3 2 1 1 1 1 1 2 2 1 2 4 4 2 1 3 3 3 3 3
13 12 12 11 11 10 9 9 8 8 7 6 5 5 4 4 4 3 4 4 3 3 3 3 2 1 1 1 1 2 2 3 3 1 1 3 4 4 2 3 3 3 3
14 14 13 13 12 11 9 9 8 7 7 5 5 5 4 4 4 4 5 3 4 3 3 2 2 1 1 2 2 1 3 2 3 3 2 2 3 5 6 5 3 3 2
15 14 14 13 12 11 10 10 9 8 7 7 6 4 5 4 5 4 5 4 3 3 3 2 2 1 1 2 1 2 1 2 3 4 4 4 4 4 4 6 5 4 3
16 16 16 15 14 13 11 10 10 9 8 8 6 6 5 6 6 5 4 2 2 3 3 2 1 1 1 1 1 1 2 2 2 3 4 4 4 4 5 6 6 6 5
17 17 17 16 15 14 13 12 11 10 9 8 7 6 6 5 4 4 2 3 1 2 3 1 1 0 0 1 1 2 1 1 3 3 4 4 4 4 5 6 6 7 6
19 18 17 16 15 15 14 13 12 11 10 9 8 7 6 4 4 5 4 3 2 2 3 2 1 1 1 1 2 2 2 2 4 4 3 4 3 4 4 5 6 7 8
19 18 17 16 15 14 13 13 12 11 10 10 8 7 7 6 6 5 4 3 3 2 2 2 2 1 1 2 3 3 2 3 3 3 4 5 5 3 4 5 5 6 7
20 18 17 16 16 15 14 13 12 12 11 10 9 8 7 7 7 5 5 4 3 3 3 3 3 2 2 2 3 3 3 4 4 4 4 5 5 5 5 4 5 5 6
19 18 17 17 16 16 15 14 13 12 12 10 10 9 8 8 8 7 6 5 5 4 4 4 4 4 3 3 4 4 4 4 4 4 5 5 4 5 6 5 6 6 6
18 18 17 16 16 15 15 14 13 13 12 11 11 10 9 9 8 7 6 6 5 5 4 5 5 5 4 4 5 5 5 5 5 5 6 6 6 6 5 6 7 6 6
18 18 17 16 16 15 14 14 14 13 12 12 11 10 10 9 8 8 7 6 6 6 5 5 5 5 5 5 5 6 6 6 6 6 6 7 7 7 7 6 7 7 8
19 19 18 16 16 15 14 14 13 13 12 12 11 10 10 9 8 8 7 7 6 6 6 6 6 6 6 5 5 6 7 6 7 7 7 7 6 5 6 8 7 7 7
20 20 19 18 17 17 16 15 14 13 13 12 12 10 10 10 9 8 8 7 7 6 6 6 7 7 5 2 1 6 7 7 7 7 7 7 8 9 10 11 11 10 10
20 20 19 18 17 17 16 16 14 14 13 12 11 11 11 10 9 9 8 8 7 7 7 7 7 7 5 5 6 7 8 9 8 8 7 8 6 5 8 9 13 14 16
19 19 18 17 17 16 15 14 14 14 14 13 12 11 11 10 9 9 8 8 7 7 6 7 7 7 6 7 8 7 9 9 9 9 9 9 9 8 7 9 10 11 10
16 16 16 17 16 16 16 15 14 14 14 13 12 12 11 10 10 9 9 8 7 7 7 7 7 8 7 8 8 9 8 8 9 10 9 9 10 5 5 9 11 12 11
12 13 14 15 15 15 15 15 15 15 14 14 12 11 11 10 10 9 8 7 7 7 7 7 7 8 8 7 9 10 8 8 8 8 9 10 11 6 7 10 11 12 11
12 13 14 14 14 15 15 15 14 14 13 12 11 11 11 10 9 8 7 7 7 7 7 7 7 8 8 8 10 11 8 8 8 8 8 6 12 11 10 11 11 11 10
13 14 13 12 13 14 15 14 14 13 12 11 11 11 10 9 9 8 8 8 8 8 8 8 8 7 7 8 9 12 13 11 10 9 9 5 7 10 11 11 11 10 9
11 12 13 13 12 13 13 13 12 11 11 11 11 10 10 9 8 9 9 8 8 8 8 7 7 7 5 6 10 12 13 14 10 9 9 8 6 8 11 15 14 11 10
10 10 12 12 12 12 11 10 10 11 11 11 10 9 9 9 9 7 8 8 7 8 7 7 7 6 5 6 5 7 9 12 12 11 10 12 13 13 12 10 10 11 10
8 9 10 10 11 11 10 10 10 10 10 10 9 8 9 8 7 8 7 8 7 6 7 7 7 7 7 4 3 6 7 7 5 6 8 9 9 9 9 9 9 9 9
7 8 8 9 10 10 10 9 9 9 9 8 8 6 6 6 6 7 7 9 9 7 9 10 10 8 7 6 6 7 8 8 5 7 10 10 10 10 9 9 8 8 8
Wind_Direction
149 145 144 142 141 143 143 143 141 139 147 142 141 139 138 137 126 118 111 111 108 112 100 98 114 186 82 18 343 288 226 254 287 264 251 232 232 240 243 247 256 241 241
155 151 150 151 152 152 150 149 151 150 153 132 123 120 120 127 115 110 107 111 112 120 124 82 108 89 103 93 25 325 299 290 286 287 271 245 209 207 216 226 231 248 242
167 161 159 159 158 158 158 150 146 146 140 141 144 138 138 150 141 135 122 102 107 105 76 95 67 72 312 79 21 326 313 302 260 288 295 291 290 271 188 208 223 247 254
172 169 167 165 164 160 154 148 146 141 141 154 153 162 164 149 127 134 115 116 108 106 102 96 87 51 37 71 268 61 308 296 286 233 283 309 331 303 276 206 191 205 240
178 174 172 171 168 162 158 154 147 144 147 150 152 167 156 138 138 135 124 130 113 108 106 106 90 69 38 39 14 19 324 306 308 304 293 279 260 263 280 282 271 243 235
181 177 173 172 170 167 164 157 153 152 155 161 160 167 146 144 146 153 148 159 135 128 112 114 101 93 55 64 26 353 334 337 335 314 304 293 291 291 287 283 278 278 271
181 177 176 176 174 173 169 165 162 162 164 166 165 164 159 159 164 171 160 177 153 141 114 103 108 88 77 36 349 315 342 324 314 295 299 303 298 301 294 289 289 288 277
181 180 178 177 177 176 174 173 171 169 170 169 165 164 170 181 165 169 171 170 165 112 112 138 151 149 247 273 296 280 277 299 293 294 306 293 288 295 292 293 295 287 275
181 180 178 178 178 179 179 178 175 175 174 171 166 169 175 177 155 161 190 172 158 153 157 174 181 204 236 280 271 286 292 284 276 276 257 270 284 274 281 284 286 291 292
180 179 178 180 180 180 179 179 178 178 175 174 179 171 172 170 170 184 168 159 166 166 184 191 194 206 222 242 267 264 252 273 271 283 301 292 283 287 277 278 278 278 285
181 179 179 180 180 179 179 180 179 178 178 179 180 173 173 172 176 180 177 178 183 183 197 204 213 222 232 241 254 277 271 267 274 272 266 269 289 288 287 274 272 272 275
181 179 179 178 181 182 180 180 181 181 179 178 180 179 177 179 184 182 181 185 191 201 203 215 223 233 237 243 250 260 265 267 268 271 274 273 268 267 275 283 279 278 283
181 179 178 180 183 183 181 180 182 182 180 178 181 181 183 184 190 187 187 194 200 207 211 218 229 238 244 248 254 261 265 266 268 269 270 272 274 271 274 277 279 279 271
182 181 180 183 184 183 182 182 183 181 179 180 184 185 188 188 190 191 192 198 204 211 216 223 232 240 246 249 252 255 259 263 264 264 268 269 268 269 274 270 266 272 279
184 185 183 183 183 182 183 183 183 180 180 183 187 187 188 189 192 192 196 201 209 216 219 229 234 239 243 245 253 259 257 261 264 262 262 263 271 298 286 290 294 286 277
188 188 187 185 185 184 184 182 182 180 181 186 189 187 189 190 194 197 200 204 211 221 226 233 239 242 246 139 214 267 272 266 264 266 266 261 236 234 232 248 264 277 279
190 189 188 188 186 185 182 182 180 178 182 187 188 187 191 194 197 201 203 208 214 220 229 236 241 247 235 186 214 236 264 265 265 267 267 269 268 243 259 236 227 239 241
191 189 188 186 184 181 179 178 176 178 183 187 189 190 193 196 198 202 206 211 217 223 230 236 241 247 233 197 216 226 246 258 258 258 258 263 271 265 269 278 273 269 254
189 186 185 180 177 176 173 174 177 180 185 189 192 192 195 198 200 205 208 212 219 226 232 235 240 245 237 202 212 229 252 251 254 255 255 257 261 241 224 263 271 274 274
179 177 175 172 171 171 170 175 179 183 189 191 192 191 193 198 203 205 209 212 219 229 238 239 242 245 247 207 206 220 254 259 261 253 248 235 240 244 211 252 266 271 276
166 165 166 168 168 167 170 178 181 186 189 186 186 188 190 196 202 204 210 217 223 231 241 247 246 243 246 222 210 216 248 265 267 269 265 251 194 214 220 239 259 268 282
157 159 161 163 162 166 171 178 184 184 181 181 184 188 192 198 195 201 211 220 227 231 236 241 248 242 233 233 218 213 228 256 267 271 276 280 182 209 224 233 249 257 263
153 158 158 156 160 168 175 179 178 175 174 179 185 189 193 202 204 205 211 219 224 238 242 241 247 250 243 219 210 215 222 229 246 266 277 286 260 239 238 235 237 241 246
151 154 154 156 160 167 173 175 167 168 174 181 186 191 197 202 204 215 221 227 230 235 242 249 255 259 253 253 238 229 222 220 232 251 255 240 240 242 258 257 229 232 246
147 152 156 158 159 160 165 166 163 169 177 183 189 196 201 206 209 215 228 235 240 250 255 261 263 267 267 273 292 283 278 283 296 288 266 262 256 246 244 247 248 248 244
143 149 152 154 155 156 159 160 162 170 176 182 191 201 207 204 217 223 226 220 237 234 235 248 264 273 273 279 269 260 264 272 279 271 264 264 263 265 266 263 259 252 250